GW2011 Weather Reports


Display with metric or nautical units.
time (UTC)temp
F
wind
direction
speed
MPH
gust
MPH
rain 1hr
in
rain 24hr
in
rain mn
in
humidity
%
barometer
mb
20260903012020 75 0 0.0 1.0 0.00 0.00 0.00 77 1007.9
20260903011542 76 0 0.0 1.0 0.00 0.00 0.00 75 1008.0
20260903011017 77 0 0.0 1.0 0.00 0.00 0.00 73 1007.9
20260903010517 78 0 0.0 2.0 0.00 0.00 0.00 72 1007.7
20260903010037 79 0 0.0 3.0 0.00 0.00 0.00 71 1007.9
20260903005518 79 128 1.0 3.0 0.00 0.00 0.00 71 1007.9
20260903005018 80 128 2.0 4.0 0.00 0.00 0.00 70 1007.9
20260903004542 80 130 2.0 4.0 0.00 0.00 0.00 69 1007.9
20260903004018 80 128 2.0 6.0 0.00 0.00 0.00 67 1008.1
20260903003518 80 137 2.0 7.0 0.00 0.00 0.00 68 1008.0
20260903003036 80 126 3.0 7.0 0.00 0.00 0.00 66 1008.0
20260903002520 81 129 3.0 5.0 0.00 0.00 0.00 65 1007.9
20260903002024 81 148 3.0 7.0 0.00 0.00 0.00 66 1007.8
20260903001542 81 143 4.0 9.0 0.00 0.00 0.00 67 1007.9
20260903001018 81 127 4.0 9.0 0.00 0.00 0.00 66 1007.7
20260903000517 81 144 4.0 8.0 0.00 0.00 0.00 66 1007.8
20260903000037 81 134 4.0 8.0 0.00 0.00 0.00 63 1007.7
20260902235518 81 123 4.0 8.0 0.00 0.00 0.00 64 1007.8
20260902235018 82 145 4.0 8.0 0.00 0.00 0.00 66 1007.8
20260902234541 82 133 4.0 8.0 0.00 0.00 0.00 63 1007.7
20260902234019 82 127 4.0 8.0 0.00 0.00 0.00 61 1007.8
20260902233521 82 134 2.0 6.0 0.00 0.00 0.00 65 1007.8
20260902233040 82 125 1.0 8.0 0.00 0.00 0.00 65 1007.8
20260902232522 82 0 1.0 8.0 0.00 0.00 0.00 62 1007.6
20260902232024 82 152 0.0 2.0 0.00 0.00 0.00 65 1007.8
20260902231552 82 0 0.0 3.0 0.00 0.00 0.00 65 1007.7
20260902231020 82 128 0.0 8.0 0.00 0.00 0.00 65 1007.6
20260902230518 82 117 2.0 8.0 0.00 0.00 0.00 64 1007.8
20260902230040 82 126 1.0 5.0 0.00 0.00 0.00 65 1007.7
20260902225523 82 0 0.0 4.0 0.00 0.00 0.00 65 1007.8
20260902225018 82 134 0.0 4.0 0.00 0.00 0.00 64 1007.8
20260902224540 82 0 0.0 4.0 0.00 0.00 0.00 64 1007.8
20260902224017 82 137 1.0 4.0 0.00 0.00 0.00 65 1007.8
20260902223519 83 129 1.0 7.0 0.00 0.00 0.00 67 1007.8
20260902223036 82 0 2.0 7.0 0.00 0.00 0.00 65 1007.8
20260902222519 83 123 1.0 5.0 0.00 0.00 0.00 60 1007.9
20260902222020 83 0 0.0 2.0 0.00 0.00 0.00 66 1007.8
20260902221550 83 0 0.0 2.0 0.00 0.00 0.00 65 1007.8
20260902221020 83 159 0.0 2.0 0.00 0.00 0.00 61 1007.9
20260902220519 83 0 0.0 2.0 0.00 0.00 0.00 63 1007.9
20260902220042 83 0 0.0 2.0 0.00 0.00 0.00 63 1008.0
20260902215518 83 90 0.0 2.0 0.00 0.00 0.00 63 1008.0
20260902215025 83 0 0.0 2.0 0.00 0.00 0.00 66 1008.0
20260902214544 83 0 0.0 2.0 0.00 0.00 0.00 61 1008.1
20260902214020 83 118 0.0 2.0 0.00 0.00 0.00 60 1007.9
20260902213523 83 119 0.0 2.0 0.00 0.00 0.00 60 1008.2
20260902213048 83 0 0.0 2.0 0.00 0.00 0.00 58 1008.1
20260902212519 83 0 0.0 2.0 0.00 0.00 0.00 61 1008.2
20260902212020 84 119 0.0 2.0 0.00 0.00 0.00 59 1008.3
20260902211546 84 126 0.0 2.0 0.00 0.00 0.00 57 1008.3
20260902211022 84 128 0.0 2.0 0.00 0.00 0.00 58 1008.3
20260902210518 84 128 0.0 2.0 0.00 0.00 0.00 63 1008.5
20260902210041 84 128 0.0 2.0 0.00 0.00 0.00 61 1008.4
20260902205519 84 128 0.0 1.0 0.00 0.00 0.00 59 1008.6
20260902205019 85 0 0.0 2.0 0.00 0.00 0.00 58 1008.6
20260902204541 85 0 0.0 2.0 0.00 0.00 0.00 58 1008.6
20260902204019 85 0 0.0 2.0 0.00 0.00 0.00 60 1008.6
20260902203516 84 128 0.0 2.0 0.00 0.00 0.00 58 1008.5
20260902203038 84 128 0.0 2.0 0.00 0.00 0.00 60 1008.7
20260902202518 84 103 0.0 2.0 0.00 0.00 0.00 59 1008.5
20260902202019 84 107 1.0 2.0 0.00 0.00 0.00 57 1008.5
20260902201537 84 0 0.0 2.0 0.00 0.00 0.00 60 1008.5
20260902201019 84 107 0.0 2.0 0.00 0.00 0.00 60 1008.6
20260902200522 84 99 0.0 3.0 0.00 0.00 0.00 56 1008.7
20260902200037 84 0 0.0 3.0 0.00 0.00 0.00 62 1008.8
20260902195521 84 109 1.0 2.0 0.00 0.00 0.00 59 1008.8
20260902195017 84 109 0.0 2.0 0.00 0.00 0.00 59 1008.9
20260902194539 84 0 0.0 3.0 0.00 0.00 0.00 56 1009.0
20260902194019 84 100 1.0 3.0 0.00 0.00 0.00 58 1009.0
20260902193518 84 100 0.0 2.0 0.00 0.00 0.00 60 1009.0
20260902193051 84 100 1.0 2.0 0.00 0.00 0.00 61 1009.1
20260902192524 84 100 0.0 2.0 0.00 0.00 0.00 59 1009.2
20260902192020 83 100 1.0 2.0 0.00 0.00 0.00 61 1009.2
20260902191536 83 0 0.0 2.0 0.00 0.00 0.00 61 1009.2
20260902191020 83 98 0.0 3.0 0.00 0.00 0.00 60 1009.3
20260902190522 82 0 1.0 4.0 0.00 0.00 0.00 61 1009.3
20260902190042 82 126 1.0 8.0 0.00 0.00 0.00 57 1009.4
20260902185517 83 115 2.0 8.0 0.00 0.00 0.00 59 1009.4
20260902185021 82 82 0.0 4.0 0.00 0.00 0.00 62 1009.5
20260902184537 82 0 1.0 4.0 0.00 0.00 0.00 59 1009.5
20260902184016 82 114 1.0 3.0 0.00 0.00 0.00 59 1009.5
20260902183525 82 0 1.0 3.0 0.00 0.00 0.00 61 1009.5
20260902183035 82 104 0.0 2.0 0.00 0.00 0.00 61 1009.6
20260902182520 81 0 0.0 3.0 0.00 0.00 0.00 62 1009.7
20260902182019 81 90 1.0 4.0 0.00 0.00 0.00 63 1009.7
20260902181539 80 105 0.0 4.0 0.00 0.00 0.00 63 1009.7
20260902181020 80 128 0.0 7.0 0.00 0.00 0.00 63 1009.9
20260902180518 80 119 2.0 7.0 0.00 0.00 0.00 62 1009.8
20260902180036 80 137 1.0 4.0 0.00 0.00 0.00 64 1009.9
20260902175520 80 124 1.0 4.0 0.00 0.00 0.00 64 1009.9
20260902175020 80 0 1.0 3.0 0.00 0.00 0.00 63 1009.9
20260902174547 80 222 0.0 3.0 0.00 0.00 0.00 63 1009.9
20260902174023 80 134 1.0 3.0 0.00 0.00 0.00 59 1009.9
20260902173520 80 93 1.0 3.0 0.00 0.00 0.00 63 1009.8
20260902173037 80 96 1.0 3.0 0.00 0.00 0.00 65 1009.8
20260902172521 79 90 1.0 3.0 0.00 0.00 0.00 64 1010.0
20260902172019 79 103 1.0 4.0 0.00 0.00 0.00 65 1010.0
20260902171539 79 107 1.0 4.0 0.00 0.00 0.00 64 1010.1
20260902171017 79 0 1.0 2.0 0.00 0.00 0.00 65 1010.2
20260902170520 79 103 0.0 4.0 0.00 0.00 0.00 67 1010.3
20260902170038 79 135 1.0 4.0 0.00 0.00 0.00 66 1010.2
20260902165524 78 84 1.0 2.0 0.00 0.00 0.00 67 1010.2
20260902165020 78 81 0.0 3.0 0.00 0.00 0.00 70 1010.4
20260902164538 77 81 0.0 4.0 0.00 0.00 0.00 70 1010.3
20260902164019 77 0 0.0 4.0 0.00 0.00 0.00 68 1010.1
20260902163516 77 113 1.0 5.0 0.00 0.00 0.00 70 1009.9
20260902163037 77 135 2.0 6.0 0.00 0.00 0.00 71 1009.8
20260902162519 77 138 2.0 6.0 0.00 0.00 0.00 73 1009.8
20260902162020 76 129 0.0 3.0 0.00 0.00 0.00 74 1009.8
20260902161540 76 0 0.0 7.0 0.00 0.00 0.00 74 1009.8
20260902161018 76 113 2.0 7.0 0.00 0.00 0.00 74 1009.8
20260902160520 76 138 1.0 3.0 0.00 0.00 0.00 75 1009.6
20260902160047 76 101 1.0 3.0 0.00 0.00 0.00 75 1009.8
20260902155518 76 108 1.0 2.0 0.00 0.00 0.00 74 1010.1
20260902155018 76 100 0.0 2.0 0.00 0.00 0.00 75 1010.1
20260902154539 76 0 1.0 2.0 0.00 0.00 0.00 75 1010.2
20260902154019 76 97 1.0 3.0 0.00 0.00 0.00 76 1010.3
20260902153519 75 105 1.0 3.0 0.00 0.00 0.00 77 1010.3
20260902153037 74 130 1.0 3.0 0.00 0.00 0.00 77 1010.4
20260902152518 74 126 1.0 3.0 0.00 0.00 0.00 77 1010.6
20260902152020 74 121 1.0 3.0 0.00 0.00 0.00 78 1010.6
20260902151537 74 125 1.0 3.0 0.00 0.00 0.00 77 1010.6
20260902151019 74 125 1.0 3.0 0.00 0.00 0.00 77 1010.5
20260902150520 74 117 0.0 3.0 0.00 0.00 0.00 78 1010.3
20260902150035 73 119 1.0 3.0 0.00 0.00 0.00 79 1010.2
20260902145518 73 119 1.0 3.0 0.00 0.00 0.00 78 1010.3
20260902145023 72 121 2.0 3.0 0.00 0.00 0.00 79 1010.2
20260902144538 72 109 1.0 3.0 0.00 0.00 0.00 79 1010.4
20260902144018 71 109 0.0 2.0 0.00 0.00 0.00 80 1010.4
20260902143516 71 0 0.0 1.0 0.00 0.00 0.00 80 1010.2
20260902143037 71 0 0.0 3.0 0.00 0.00 0.00 81 1010.1
20260902142518 71 0 0.0 3.0 0.00 0.00 0.00 81 1010.0
20260902142020 70 0 0.0 3.0 0.00 0.00 0.00 80 1009.7
20260902141536 70 101 1.0 3.0 0.00 0.00 0.00 81 1009.6
20260902141018 70 0 1.0 3.0 0.00 0.00 0.00 81 1009.6
20260902140518 70 101 0.0 2.0 0.00 0.00 0.00 80 1010.0
20260902140046 70 0 0.0 2.0 0.00 0.00 0.00 79 1009.9
20260902135517 70 0 0.0 2.0 0.00 0.00 0.00 79 1010.0
20260902135018 70 101 0.0 2.0 0.00 0.00 0.00 79 1010.1
20260902134539 70 0 0.0 2.0 0.00 0.00 0.00 79 1010.2
20260902134018 70 0 0.0 2.0 0.00 0.00 0.00 79 1010.2
20260902133521 70 101 0.0 2.0 0.00 0.00 0.00 79 1010.3
20260902133035 69 0 0.0 2.0 0.00 0.00 0.00 81 1010.2
20260902132517 69 101 0.0 2.0 0.00 0.00 0.00 81 1010.1
20260902132020 69 0 0.0 2.0 0.00 0.00 0.00 81 1010.4
20260902131539 68 0 0.0 2.0 0.00 0.00 0.00 82 1010.3
20260902131020 68 134 0.0 2.0 0.00 0.00 0.00 83 1010.1
20260902130520 67 134 0.0 2.0 0.00 0.00 0.00 84 1010.3
20260902130040 67 0 0.0 3.0 0.00 0.00 0.00 84 1010.4
20260902125517 66 0 0.0 3.0 0.00 0.00 0.00 85 1010.3
20260902125018 66 139 0.0 2.0 0.00 0.00 0.00 85 1010.4
20260902124537 66 0 0.0 0.0 0.00 0.00 0.00 85 1010.2
20260902124017 66 0 0.0 0.0 0.00 0.00 0.00 85 1010.2
20260902123519 66 0 0.0 0.0 0.00 0.00 0.00 85 1010.3
20260902123036 66 0 0.0 0.0 0.00 0.00 0.00 85 1010.4
20260902122520 65 0 0.0 0.0 0.00 0.00 0.00 85 1010.3
20260902122019 65 0 0.0 0.0 0.00 0.00 0.00 84 1010.3
20260902121539 66 0 0.0 0.0 0.00 0.00 0.00 84 1010.2
20260902121020 66 0 0.0 0.0 0.00 0.00 0.00 84 1010.0
20260902120518 66 0 0.0 0.0 0.00 0.00 0.00 84 1010.1
20260902120036 66 0 0.0 0.0 0.00 0.00 0.00 83 1010.0
20260902115517 66 0 0.0 0.0 0.00 0.00 0.00 83 1010.0
20260902115017 66 0 0.0 1.0 0.00 0.00 0.00 83 1010.0
20260902114608 66 0 0.0 1.0 0.00 0.00 0.00 82 1010.0
20260902114018 66 0 0.0 2.0 0.00 0.00 0.00 82 1010.0
20260902113521 66 139 0.0 2.0 0.00 0.00 0.00 81 1009.9
20260902113035 66 0 0.0 1.0 0.00 0.00 0.00 81 1010.1
20260902112519 66 139 0.0 1.0 0.00 0.00 0.00 80 1010.4
20260902112021 66 0 0.0 1.0 0.00 0.00 0.00 81 1010.4
20260902111535 66 0 0.0 1.0 0.00 0.00 0.00 80 1010.0
20260902111020 66 0 0.0 1.0 0.00 0.00 0.00 81 1010.2
20260902110518 66 0 0.0 1.0 0.00 0.00 0.00 82 1010.3
20260902110037 66 0 0.0 1.0 0.00 0.00 0.00 82 1010.2
20260902105519 66 0 0.0 1.0 0.00 0.00 0.00 82 1010.0
20260902105017 66 0 0.0 0.0 0.00 0.00 0.00 83 1010.1
20260902104536 66 0 0.0 0.0 0.00 0.00 0.00 83 1010.4
20260902104018 66 0 0.0 0.0 0.00 0.00 0.00 82 1010.3
20260902103518 67 0 0.0 0.0 0.00 0.00 0.00 82 1010.2
20260902103045 67 0 0.0 0.0 0.00 0.00 0.00 81 1010.3
20260902102518 67 0 0.0 0.0 0.00 0.00 0.00 81 1010.1
20260902102018 67 0 0.0 0.0 0.00 0.00 0.00 80 1010.3
20260902101534 67 0 0.0 0.0 0.00 0.00 0.00 79 1010.4
20260902101019 67 0 0.0 0.0 0.00 0.00 0.00 79 1010.2
20260902100520 67 0 0.0 0.0 0.00 0.00 0.00 79 1010.2
20260902100055 67 0 0.0 0.0 0.00 0.00 0.00 80 1010.1
20260902095518 67 0 0.0 0.0 0.00 0.00 0.00 79 1010.0
20260902095019 67 0 0.0 0.0 0.00 0.00 0.00 80 1010.0
20260902094535 67 0 0.0 0.0 0.00 0.00 0.00 80 1010.0
20260902094018 67 0 0.0 1.0 0.00 0.00 0.00 79 1010.1
20260902093519 67 0 0.0 1.0 0.00 0.00 0.00 79 1009.8
20260902093047 67 0 0.0 2.0 0.00 0.00 0.00 79 1009.6
20260902092517 67 115 0.0 2.0 0.00 0.00 0.00 79 1009.4
20260902092022 67 0 0.0 1.0 0.00 0.00 0.00 81 1009.8
20260902091537 67 0 0.0 1.0 0.00 0.00 0.00 81 1010.1
20260902091019 67 0 0.0 1.0 0.00 0.00 0.00 80 1010.2
20260902090518 67 0 0.0 1.0 0.00 0.00 0.00 79 1010.1
20260902090037 67 0 0.0 1.0 0.00 0.00 0.00 81 1010.2
20260902085520 67 0 0.0 1.0 0.00 0.00 0.00 81 1010.2
20260902085020 67 0 0.0 1.0 0.00 0.00 0.00 80 1010.1
20260902084541 67 0 0.0 1.0 0.00 0.00 0.00 80 1009.9
20260902084021 68 0 0.0 2.0 0.00 0.00 0.00 80 1010.1
20260902083520 68 0 0.0 2.0 0.00 0.00 0.00 79 1010.1
20260902083039 68 0 0.0 3.0 0.00 0.00 0.00 78 1010.0
20260902082519 69 0 0.0 4.0 0.00 0.00 0.00 78 1010.2
20260902082018 69 135 0.0 5.0 0.00 0.00 0.00 79 1010.0
20260902081540 69 135 0.0 5.0 0.00 0.00 0.00 79 1010.1
20260902081018 68 151 0.0 4.0 0.00 0.00 0.00 79 1010.2
20260902080518 68 0 0.0 1.0 0.00 0.00 0.00 79 1010.2
20260902080037 69 0 0.0 1.0 0.00 0.00 0.00 79 1010.0
20260902075517 69 0 0.0 3.0 0.00 0.00 0.00 78 1010.0
20260902075021 70 0 0.0 5.0 0.00 0.00 0.00 76 1009.8
20260902074539 70 123 3.0 5.0 0.00 0.00 0.00 78 1009.7
20260902074020 70 144 2.0 4.0 0.00 0.00 0.00 77 1009.8
20260902073520 70 0 0.0 5.0 0.00 0.00 0.00 78 1009.7
20260902073036 70 138 2.0 5.0 0.00 0.00 0.00 77 1009.8
20260902072519 69 126 0.0 4.0 0.00 0.00 0.00 79 1009.8
20260902072016 69 140 0.0 3.0 0.00 0.00 0.00 79 1009.6
20260902071544 69 106 1.0 3.0 0.00 0.00 0.00 81 1009.4
20260902071023 69 0 0.0 1.0 0.00 0.00 0.00 80 1009.4
20260902070521 70 0 0.0 7.0 0.00 0.00 0.00 79 1009.4
20260902070035 70 131 0.0 7.0 0.00 0.00 0.00 80 1009.5
20260902065520 69 127 0.0 3.0 0.00 0.00 0.00 78 1009.8
20260902065020 69 88 1.0 3.0 0.00 0.00 0.00 81 1009.7
20260902064540 68 111 0.0 3.0 0.00 0.00 0.00 80 1009.8
20260902064017 68 0 0.0 1.0 0.00 0.00 0.00 80 1010.0
20260902063521 68 215 0.0 1.0 0.00 0.00 0.00 82 1010.0
20260902063036 68 0 0.0 2.0 0.00 0.00 0.00 83 1010.1
20260902062519 68 215 0.0 2.0 0.00 0.00 0.00 84 1010.2
20260902062021 68 0 0.0 3.0 0.00 0.00 0.00 85 1010.1
20260902061021 67 90 0.0 3.0 0.00 0.00 0.00 88 1010.1
20260902060519 67 0 0.0 2.0 0.00 0.00 0.00 88 1009.9
20260902060051 66 71 0.0 2.0 0.00 0.00 0.00 88 1009.9
20260902055520 66 228 0.0 2.0 0.00 0.00 0.00 88 1010.0
20260902055020 66 0 0.0 1.0 0.00 0.00 0.00 88 1009.9
20260902054542 66 0 0.0 0.0 0.00 0.00 0.00 88 1010.0
20260902054017 66 0 0.0 0.0 0.00 0.00 0.00 88 1010.0
20260902053520 67 0 0.0 1.0 0.00 0.00 0.00 88 1010.2
20260902053040 67 0 0.0 1.0 0.00 0.00 0.00 87 1010.2
20260902052521 67 0 0.0 1.0 0.00 0.00 0.00 88 1010.2
20260902052026 67 0 0.0 2.0 0.00 0.00 0.00 88 1010.2
20260902051540 67 0 0.0 2.0 0.00 0.00 0.00 89 1010.4
20260902051018 67 0 0.0 0.0 0.00 0.00 0.00 87 1010.5
20260902050518 67 0 0.0 1.0 0.00 0.00 0.00 87 1010.4
20260902050043 67 0 0.0 1.0 0.00 0.00 0.00 88 1010.6
20260902045519 67 0 0.0 1.0 0.00 0.00 0.00 87 1011.1
20260902045020 67 0 0.0 1.0 0.00 0.00 0.00 87 1011.1
20260902044539 67 0 0.0 0.0 0.00 0.00 0.00 87 1011.1
20260902044020 67 0 0.0 1.0 0.00 0.00 0.00 87 1011.2
20260902043520 67 0 0.0 1.0 0.00 0.00 0.00 87 1011.3
20260902043036 67 0 0.0 0.0 0.00 0.00 0.00 86 1011.2
20260902042519 67 0 0.0 0.0 0.00 0.00 0.00 86 1011.3
20260902042019 68 0 0.0 1.0 0.00 0.00 0.00 86 1011.1
20260902041557 68 0 0.0 1.0 0.00 0.00 0.00 86 1011.2
20260902041020 68 0 0.0 1.0 0.00 0.00 0.00 86 1011.1
20260902040518 68 0 0.0 0.0 0.00 0.00 0.00 87 1011.2
20260902040045 68 0 0.0 0.0 0.00 0.00 0.00 85 1011.1
20260902035523 68 0 0.0 1.0 0.00 0.00 0.00 86 1011.1
20260902035022 67 0 0.0 2.0 0.00 0.00 0.00 87 1011.0
20260902034538 67 0 0.0 2.0 0.00 0.00 0.00 87 1011.0
20260902034019 67 0 0.0 1.0 0.00 0.00 0.00 87 1010.7
20260902033517 68 0 0.0 0.0 0.00 0.00 0.00 87 1010.7
20260902033041 68 0 0.0 0.0 0.00 0.00 0.00 87 1010.7
20260902032519 68 0 0.0 0.0 0.00 0.00 0.00 86 1011.1
20260902032024 68 0 0.0 0.0 0.00 0.00 0.00 87 1011.0
20260902031540 68 0 0.0 0.0 0.00 0.00 0.00 87 1011.1
20260902031041 68 0 0.0 0.0 0.00 0.00 0.00 85 1011.0
20260902030523 68 0 0.0 0.0 0.00 0.00 0.00 85 1010.9
20260902030035 68 0 0.0 0.0 0.00 0.00 0.00 85 1011.0
20260902025518 69 0 0.0 0.0 0.00 0.00 0.00 84 1011.0
20260902025018 69 0 0.0 0.0 0.00 0.00 0.00 84 1011.1
20260902024544 69 0 0.0 0.0 0.00 0.00 0.00 84 1011.0
20260902024018 69 0 0.0 0.0 0.00 0.00 0.00 84 1011.1
20260902023517 70 0 0.0 0.0 0.00 0.00 0.00 83 1011.0
20260902023039 70 0 0.0 0.0 0.00 0.00 0.00 82 1011.1
20260902022517 70 0 0.0 0.0 0.00 0.00 0.00 82 1011.0
20260902022020 70 0 0.0 0.0 0.00 0.00 0.00 81 1011.0
20260902021546 70 0 0.0 0.0 0.00 0.00 0.00 81 1011.0
20260902021021 70 0 0.0 0.0 0.00 0.00 0.00 81 1011.0
20260902020521 70 0 0.0 0.0 0.00 0.00 0.00 80 1010.9
20260902020038 70 0 0.0 0.0 0.00 0.00 0.00 80 1010.8
20260902015520 70 0 0.0 1.0 0.00 0.00 0.00 80 1010.5
20260902015021 70 0 0.0 1.0 0.00 0.00 0.00 80 1010.2
20260902014538 71 0 0.0 1.0 0.00 0.00 0.00 82 1010.2
20260902014019 71 0 0.0 1.0 0.00 0.00 0.00 83 1010.4
20260902013519 71 0 0.0 1.0 0.00 0.00 0.00 80 1010.7
20260902013037 71 0 0.0 0.0 0.00 0.00 0.00 79 1010.4
20260902012519 71 0 0.0 0.0 0.00 0.00 0.00 79 1010.7